Location: Unspecified
(0.0000°N, 0.0000°E)
Time: 01:46:44
(UTC+00:00)

Envisat - Pass Details

Date: 20 March 2018
Orbit: 764 x 766 km, 98.2° (Epoch: 17 June)

Event Time Altitude Azimuth Distance (km) Brightness Sun altitude
Exits shadow 20:27:47 27° 309° (NW) 1,447 4.7 -35.1°
Drops below altitude 10° 20:30:17 10° 328° (NNW) 2,291 5.8 -35.7°
Sets 20:32:42 0° 335° (NNW) 3,214 6.5 -36.3°
